Weather History for Cahokia, IL

Change the Weather History Date:

Sunday, May 4, 2014

  Actual Average Record
Temperature  
Mean Temperature 64 °F -  
Max Temperature 81 °F 70 °F 91 °F (1952)
Min Temperature 48 °F 50 °F 34 °F (2011)
Growing Degree Days 14 (Base 50)    
Moisture  
Dew Point 51 °F    
Average Humidity 62    
Maximum Humidity 93    
Minimum Humidity 37    
Precipitation  
Precipitation 0.00 in - - ()
Sea Level Pressure  
Sea Level Pressure 29.90 in    
Wind  
Wind Speed 4 mph (East)    
Max Wind Speed 16 mph    
Max Gust Speed -    
Visibility 10 miles    
Events      
Averages and records for this station are not official NWS values.
T = Trace of Precipitation, MM = Missing Value Source: NWS Daily Summary

Daily Weather History Graph

Daily Weather History Graph

Search for Another Location

Airport:

Trip Planner

Search our weather history database for the weather conditions in past years. The results will help you decide how hot, cold, wet, or windy it might be!

Date:

Astronomy

May. 04, 2014 Rise Set
Actual Time 5:59 AM CDT 7:55 PM CDT
Civil Twilight 5:31 AM CDT 8:24 PM CDT
Nautical Twilight 4:56 AM CDT 8:59 PM CDT
Astronomical Twilight 4:18 AM CDT 9:37 PM CDT
Moon 10:24 AM CDT (5/4) 12:00 AM CDT (5/4)
Length of Visible Light 14h 53m
Length of Day
13h 55m
Waxing Crescent, 28% of the Moon is Illuminated
May 4
Waxing Crescent
May 6
First Quarter
May 14
Full
May 21
Last Quarter
May 28
New

Hourly Weather History & Observations

Time (CDT) Temp. Heat Index Dew Point Humidity Pressure Visibility Wind Dir Wind Speed Gust Speed Precip Events Conditions
12:53 AM 53.1 °F - 50.0 °F 89% 29.94 in 10.0 mi Calm Calm - N/A   Clear
1:53 AM 53.1 °F - 50.0 °F 89% 29.94 in 10.0 mi Calm Calm - N/A   Clear
2:53 AM 52.0 °F - 48.9 °F 89% 29.93 in 10.0 mi SSW 3.5 mph - N/A   Clear
3:53 AM 48.9 °F - 46.9 °F 93% 29.93 in 10.0 mi Calm Calm - N/A   Clear
4:53 AM 50.0 °F - 48.0 °F 93% 29.93 in 10.0 mi Calm Calm - N/A   Clear
5:53 AM 48.9 °F - 46.9 °F 93% 29.93 in 10.0 mi Calm Calm - N/A   Clear
6:53 AM 51.1 °F - 48.9 °F 92% 29.97 in 10.0 mi Calm Calm - N/A   Clear
7:53 AM 57.0 °F - 50.0 °F 77% 29.98 in 10.0 mi Calm Calm - N/A   Clear
8:53 AM 66.0 °F - 51.1 °F 59% 29.98 in 10.0 mi Variable 5.8 mph - N/A   Clear
9:53 AM 70.0 °F - 50.0 °F 49% 29.97 in 10.0 mi East 5.8 mph - N/A   Clear
10:53 AM 72.0 °F - 50.0 °F 46% 29.98 in 10.0 mi East 8.1 mph - N/A   Clear
11:53 AM 75.0 °F - 51.1 °F 43% 29.96 in 10.0 mi East 5.8 mph - N/A   Clear
12:53 PM 77.0 °F - 53.1 °F 43% 29.93 in 10.0 mi SSE 6.9 mph - N/A   Clear
1:53 PM 78.1 °F - 50.0 °F 37% 29.91 in 10.0 mi North - - N/A   Clear
2:53 PM 80.1 °F 79.9 °F 53.1 °F 39% 29.89 in 10.0 mi East 6.9 mph - N/A   Clear
3:53 PM 81.0 °F 80.5 °F 54.0 °F 39% 29.86 in 10.0 mi ENE 10.4 mph - 0.00 in   Clear
4:53 PM 80.1 °F 80.1 °F 55.0 °F 42% 29.83 in 10.0 mi East 15.0 mph - 0.00 in   Clear
5:53 PM 79.0 °F - 55.0 °F 44% 29.82 in 10.0 mi East 13.8 mph - N/A   Clear
6:53 PM 75.9 °F - 55.9 °F 50% 29.82 in 10.0 mi ENE 11.5 mph - 0.00 in   Clear
7:53 PM 72.0 °F - 53.1 °F 51% 29.82 in 10.0 mi ENE 16.1 mph - 0.00 in   Clear
8:53 PM 69.1 °F - 52.0 °F 54% 29.83 in 10.0 mi ENE 11.5 mph - 0.00 in   Clear
9:53 PM 68.0 °F - 51.1 °F 55% 29.84 in 10.0 mi East 12.7 mph - N/A   Clear
10:53 PM 66.0 °F - 50.0 °F 56% 29.83 in 10.0 mi East 10.4 mph - N/A   Clear
11:53 PM 64.9 °F - 48.9 °F 56% 29.83 in 10.0 mi East 5.8 mph - N/A   Clear